loading
DOY 205 | 2024-07-23T03:31:07Z

THOR ABLESTAR DEB, 145

Orbit data source: Space-Track

THOR ABLESTAR DEB, 145 is space debris in LEO originally from a launch on Thu, 29 Jun 1961 UTC launched from the Air Force Eastern Test Range (AFETR). Debris objects in space refer to the collection of defunct objects orbiting the Earth. Examples of debris include non-operational satellites, rocket bodies, and fragments generated from explosions, collisions, or faulty payload assembly.

Loading next visibility...
Loading greatness...
THOR ABLESTAR DEB details
NORAD ID145
COSPAR ID
1961-015AF
Orbit
LEO
Last TLE update18 hours ago
Origin
Flag of USUSAF SSD (US)
ManufacturerUnknown
BusUnknown
MotorUnknown
MassWet unknown, Dry mass unknown
Launch date (UTC)
1961-06-29 (63 years ago)
Launch vehicleUnknown
Launch site
Air Force Eastern Test Range (AFETR)
Object type
Payload
Rocket body
Debris
Radar Cross SectionMedium (>0.1 m² and <1 m²)
Predictive object data (real-time)
Latitude66.91235°
Longitude-63.66205°
Altitude855.852 km
Speed7.452 km/s
Apparent Right ascension03h 35m 07s
Apparent Declination19° 25' 40"
Sunlit
Object is in daylight
Predictive observer data (real-time)
Local Sidereal Time16:36:07
Azimuth16.474° NNE
Elevation-28.974°
Doppler factor1
Orbital elements
Apogee924.389 km
Perigee843.493 km
Semi-major axis7,262.078 km
Eccentricity0.0055698
Inclination66.9279°
RAAN304.9385°
Arg. of periapsis89.0341°
True anomaly271.07441°
Mean anomaly271.7125°
Mean motion3.50713 °/min
BSTAR0.00045783
Period102.65 mins
Definitive object data (Epoch: 2024-07-22T09:59:23.574Z)
Latitude-0.00006°
Longitude-145.55907°
Altitude886.684 km
Speed7.41 km/s
True Right ascension20h 19m 45s
True Declination0° 00' 00"
Sunlit
Object was in full shadow at TLE epoch
TLE from 18 hours ago
0 THOR ABLESTAR DEB
1 00145U 61015AF  24204.41624507  .00000635  00000-0  45783-3 0  9998
2 00145  66.9279 304.9385 0055698  89.0341 271.7125 14.02378328219253
Epoch: 2024-07-22T09:59Z
No data available

THOR ABLESTAR DEB Visibility forecast

Observer location: 39.9160978°, -105.1181434

THOR ABLESTAR DEB is not visible in the next 10 days
Span
Click to sort rows by Start time (UTC) header in descending order
Start Az.
Max El. time (UTC)
Max El. Az.
Max El.
End time (UTC)
End Az.